Regional Weather Roundup
Issued by NWS

Home | Current Version | Previous Version | Graphics & Text | Print | Product List | Glossary On
Versions: 1 2 3 4 5 6 7 8 9 10 11 12 13 14 15 16 17 18 19 20 21 22 23 24 25 26 27 28 29 30 31 32 33 34 35 36 37 38 39 40 41 42 43 44 45 46 47 48 49 50
903
ASUS43 KDMX 190006
RWRIA

WEATHER ROUNDUP FOR IOWA
NATIONAL WEATHER SERVICE DES MOINES IA
600 PM CST SUN FEB 18 2018

NOTE: "FAIR" INDICATES FEW OR NO CLOUDS BELOW 12,000 FEET WITH NO
SIGNIFICANT WEATHER AND/OR OBSTRUCTIONS TO VISIBILITY.

* - THESE STATIONS ARE NOT NWS STATIONS...THUS NOT UNDER NWS
QUALITY CONTROL.  THEY ALSO DO NOT REPORT WEATHER SUCH
AS PRECIPITATION OR FOG.

IAZ001>003-012>014-020>022-031>034-043>046-190100-
   NORTHWEST IOWA

CITY           SKY/WX    TMP DP  RH WIND       PRES   REMARKS
CARROLL *      CLEAR     43  32  65 S12       29.62R
CHEROKEE *     CLOUDY    41  32  71 S5        29.59R
DENISON *      CLEAR     46  32  57 S15G21    29.61R
LE MARS *      CLOUDY    41  34  75 SE5       29.58R
ORANGE CITY *  CLOUDY    43  36  75 CALM      29.58R
SHELDON *      CLOUDY    37  34  87 S5        29.57R WCI  34
SIOUX CITY     CLEAR     41  33  73 N5        29.58R
6HR MIN TEMP:  41; 6HR MAX TEMP:  48;

SPENCER        CLOUDY    40  32  73 NW3       29.60R
6HR MIN TEMP:  38; 6HR MAX TEMP:  44;

STORM LAKE *   CLEAR     39  32  75 S14       29.59R WCI  31
$$

IAZ055>058-069>071-079>083-090>094-190100-
   SOUTHWEST IOWA

CITY           SKY/WX    TMP DP  RH WIND       PRES   REMARKS
ATLANTIC *     CLOUDY    46  28  49 S9        29.63S
AUDUBON *      CLOUDY    46  28  49 CALM      29.64S
CLARINDA *     CLOUDY    50  36  57 S13G20    29.65F
COUNCIL BLFS * CLOUDY    48  36  61 S12       29.59S
CRESTON *      CLOUDY    46  30  53 S10       29.67R
HARLAN  *      CLEAR     46  32  57 S7        29.65R
LAMONI         CLOUDY    51  31  46 S20G31    29.67R
6HR MIN TEMP:  48; 6HR MAX TEMP:  54;

RED OAK *      CLOUDY    48  34  57 S8        29.63S
SHENANDOAH *   CLOUDY    50  36  57 S10       29.64R
$$

IAZ047>049-059>061-072>074-084-190100-
   CENTRAL IOWA

CITY           SKY/WX    TMP DP  RH WIND       PRES   REMARKS
AMES           CLOUDY    42  31  64 SE3       29.68R
6HR MIN TEMP:  41; 6HR MAX TEMP:  51;

ANKENY *       CLOUDY    48  27  43 S6        29.69R
BOONE *        CLOUDY    43  32  65 S9        29.66S
CHARITON *     CLOUDY    48  30  49 S14       29.66R
DES MOINES     CLOUDY    47  28  47 S7        29.68R
6HR MIN TEMP:  47; 6HR MAX TEMP:  54;

GRINNELL*      CLOUDY    44  30  59 SE15      29.68F
KNOXVILLE *    CLOUDY    50  28  43 VRB7G20   29.66R
MARSHALLTOWN   CLOUDY    41  31  67 SE7       29.69R
6HR MIN TEMP:  41; 6HR MAX TEMP:  50;

NEWTON *       CLOUDY    45  30  57 SW8       29.70R
PELLA *        CLOUDY    47  29  48 S10       29.68F
PERRY *        CLOUDY    40  31  69 S8        29.66S WCI  35
$$

IAZ004>006-015-016-023>025-035-036-190100-
   NORTH CENTRAL IOWA

CITY           SKY/WX    TMP DP  RH WIND       PRES   REMARKS
ALGONA *       CLOUDY    43 N/A N/A S15       29.61S
CLARION *      CLEAR     39  37  93 S15       29.65R WCI  31
ESTHERVILLE    PTCLDY    36  30  79 S6        29.60R WCI  31
6HR MIN TEMP:  36; 6HR MAX TEMP:  40;

FORT DODGE *   CLEAR     45  28  51 S10       29.64R
MASON CITY     CLEAR     36  29  75 S7        29.66R WCI  30
6HR MIN TEMP:  36; 6HR MAX TEMP:  43;

FOREST CITY *  FAIR      37  32  81 S12       29.64R WCI  30
WEBSTER CITY * CLOUDY    39  30  70 S12       29.63S WCI  32
IOWA FALLS *   FAIR      39  32  75 SE12      29.68F WCI  32
$$

IAZ007>011-017>019-026>030-037>042-050>054-066-190100-
   NORTHEAST IOWA

CITY           SKY/WX    TMP DP  RH WIND       PRES   REMARKS
CEDAR RAPIDS   FAIR      43  30  60 SE14G26   29.73F
6HR MIN TEMP:  40; 6HR MAX TEMP:  46;

CHARLES CITY * FAIR      39  32  75 S18G25    29.69S WCI  30
CLINTON *      FAIR     N/A N/A N/A SE21        N/A
DECORAH *      FAIR      37  30  75 S14G22    29.72S WCI  29
DUBUQUE        FAIR      36  29  75 S25       29.76F WCI  24
6HR MIN TEMP:  31; 6HR MAX TEMP:  36;

MONTICELLO *   FAIR      39  30  70 SE13G23   29.76F WCI  32
OELWEIN *      MOCLDY    37  36  93 SE10      29.74R WCI  30
WATERLOO       FAIR      39  30  70 SE10      29.72R WCI  32
6HR MIN TEMP:  37; 6HR MAX TEMP:  41;

$$

IAZ064-065-067-068-078-190100-
   EAST CENTRAL IOWA

CITY           SKY/WX    TMP DP  RH WIND       PRES   REMARKS
DAVENPORT      FAIR      42  29  59 SE23      29.82F
6HR MIN TEMP:  36; 6HR MAX TEMP:  44;

IOWA CITY      FAIR      42  29  59 SE10      29.79S
6HR MIN TEMP:  40; 6HR MAX TEMP:  46;

MT. PLEASANT * CLEAR     43  28  56 S18G26    29.77F
MUSCATINE *    FAIR      45  28  53 SE7G26    29.79F
QUAD CITIES    FAIR      42  30  62 SE15G26   29.82F
6HR MIN TEMP:  36; 6HR MAX TEMP:  45;

$$

IAZ062-063-075>077-085>089-095>099-190100-
   SOUTHEAST IOWA

CITY           SKY/WX    TMP DP  RH WIND       PRES   REMARKS
BURLINGTON     CLEAR     45  27  49 S17G26    29.80F
6HR MIN TEMP:  44; 6HR MAX TEMP:  50;

FAIRFIELD *    CLOUDY    46  27  46 S17G29    29.72F
FORT MADISON * CLEAR     45  30  57 SE15G23   29.80F
KEOKUK *       CLEAR     46  28  49 SE17      29.79F
OSKALOOSA *    FAIR      43  30  61 S14       29.71R
OTTUMWA        PTCLDY    48  27  44 S17G24    29.70F
6HR MIN TEMP:  47; 6HR MAX TEMP:  53;

WASHINGTON *   CLEAR     43  32  65 S15       29.76S
$$

ABBREVIATIONS USED IN REMARKS
   TC - TEMPERATURES IN CELSIUS
  WCI - WIND CHILL INDEX
   HX - HEAT INDEX
  VSB - VISIBILITY
$$





USA.gov is the U.S. government's official web portal to all federal, state and local government web resources and services.